Skip Page Navigation
NASA JPL Caltech
NASA Logo - Jet Propulsion Laboratory + View the NASA Portal
+ Center for Near-Earth Object Studies
JPL Home Earth Solar System Stars & Galaxies Technology
JPL Solar System Dynamics
BODIES ORBITS EPHEMERIDES TOOLS PHYSICAL DATA DISCOVERY FAQ SITE MAP
JPL Small-Body Database Browser
Search: [ help ]  
233356 (2006 DQ86)
Classification: Main-belt Asteroid          SPK-ID: 2233356
Ephemeris | Orbit Diagram | Orbital Elements | Mission Design | Physical Parameters | Discovery Circumstances | Close-Approach Data ]

[ show orbit diagram ]
Orbital Elements at Epoch 2459000.5 (2020-May-31.0) TDB
Reference: JPL 16 (heliocentric ecliptic J2000)
 Element Value Uncertainty (1-sigma)   Units 
e .2219690252239966 6.5673e-08  
a 2.53576275162771 1.498e-08 au
q 1.972901965449588 1.6641e-07 au
i 2.010533886936942 8.4538e-06 deg
node 109.0767315086367 0.00031367 deg
peri 120.5733324932655 0.00031538 deg
M 151.503971810833 3.5647e-05 deg
tp 2458379.798390304369
(2018-Sep-18.29839030)
0.00014406 TDB
period 1474.895851373645
4.04
1.3069e-05
3.578e-08
d
yr
n .244085031268285 2.1628e-09 deg/d
Q 3.098623537805833 1.8305e-08 au
  Orbit Determination Parameters
   # obs. used (total)      229  
   data-arc span      8244 days (22.57 yr)  
   first obs. used      1998-03-29  
   last obs. used      2020-10-23  
   planetary ephem.      DE431  
   SB-pert. ephem.      SB431-N16  
   condition code      0  
   norm. resid. RMS      .60933  
   source      ORB  
   producer      Otto Matic  
   solution date      2020-Nov-12 01:53:59  

Additional Information
 Earth MOID = .96358 au 
 Jupiter MOID = 1.89329 au 
 T_jup = 3.413 
[ hide covariance matrix ]
Orbital Elements at Epoch 2457273.5 (2015-Sep-08.0) TDB
Reference: JPL 16 (heliocentric ecliptic J2000)
 Element Value Uncertainty (1-sigma)   Units 
e .2215291291436151 6.569e-08  
q 1.974853734699529 1.6631e-07 au
tp 2456904.660484252330
(2014-Sep-04.16048425)
0.00014103 TDB
node 109.0896829662961 0.00031385 deg
peri 120.6586445035328 0.00031557 deg
i 2.010173943062647 8.4492e-06 deg
  Orbit Determination Parameters
   # obs. used (total)      229  
   data-arc span      8244 days (22.57 yr)  
   first obs. used      1998-03-29  
   last obs. used      2020-10-23  
   planetary ephem.      DE431  
   SB-pert. ephem.      SB431-N16  
   condition code      0  
   norm. resid. RMS      .60933  
   source      ORB  
   producer      Otto Matic  
   solution date      2020-Nov-12 01:53:59  

Additional Information
 Jupiter MOID = 1.89329 au 
 T_jup = 3.413 
Orbit Covariance (6×6)
  e q tp node peri i
e 4.315226488908831E-15 -1.089821244628735E-14 -7.363760293446828E-12 -1.281520939348375E-13 -1.76164216505519E-12 -7.177400140351583E-15
q -1.089821244628735E-14 2.765914399151076E-14 1.907006312217275E-11 3.215133196651537E-13 4.577305323602394E-12 1.821905040287577E-14
tp -7.363760293446828E-12 1.907006312217275E-11 1.988934562506671E-8 3.046187017583477E-10 4.867894363497751E-9 1.741398743279127E-11
node -1.281520939348375E-13 3.215133196651537E-13 3.046187017583477E-10 9.850189361604455E-8 -9.836404281719308E-8 2.180561248933595E-9
peri -1.76164216505519E-12 4.577305323602394E-12 4.867894363497751E-9 -9.836404281719308E-8 9.958642413464329E-8 -2.174758364763706E-9
i -7.177400140351583E-15 1.821905040287577E-14 1.741398743279127E-11 2.180561248933595E-9 -2.174758364763706E-9 7.138942716309807E-11

Ephemeris | Orbit Diagram | Orbital Elements | Mission Design | Physical Parameters | Discovery Circumstances | Close-Approach Data ]

Physical Parameter Table
Parameter Symbol Value Units Sigma Reference Notes
absolute magnitude H 17.2   n/a MPO440205  

233356 (2006 DQ86)          Discovered 2006-Feb-24 by Spacewatch at Kitt Peak
Reference: 20100228/Numbers.arcLast Updated: 2010-03-03

[ show close-approach data ]
Ephemeris | Orbit Diagram | Orbital Elements | Mission Design | Physical Parameters | Discovery Circumstances | Close-Approach Data ]
ABOUT SSD CREDITS/AWARDS PRIVACY/COPYRIGHT GLOSSARY LINKS
FirstGov 2020-Nov-26 22:13 UT
(server date/time)  
NASA Home Page
Site Manager:   Ryan S. Park
Webmaster  Alan B. Chamberlin